This is the latest recevied weather packets stored in our database for station/object KE4AMH. If no packets are shown the sender has not sent any weather packets the latest 10 day(s).
| Time | Temp. | Humidity | Pressure | Rain* | Wind** | Luminosity | Snow |
|---|---|---|---|---|---|---|---|
| 1777572747 | 23.33° C | 72% | 1010.3 hPa | 0 mm | - | 557 W/m² | - |
| 1777572441 | 22.22° C | 75% | 1010.3 hPa | 0 mm | - | 542 W/m² | - |
| 1777572138 | 22.22° C | 74% | 1010.1 hPa | 0 mm | - | 186 W/m² | - |
| 1777571833 | 22.22° C | 77% | 1010.4 hPa | 0 mm | - | 181 W/m² | - |
| 1777571529 | 22.78° C | 73% | 1010.5 hPa | 0 mm | - | 193 W/m² | - |
| 1777571226 | 23.33° C | 72% | 1010.7 hPa | 0 mm | - | 470 W/m² | - |
| 1777570922 | 22.78° C | 71% | 1010.6 hPa | 0 mm | - | 484 W/m² | - |
| 1777570618 | 22.78° C | 75% | 1010.4 hPa | 0 mm | - | 569 W/m² | - |
| 1777570315 | 22.22° C | 77% | 1010.5 hPa | 0 mm | - | 363 W/m² | - |
| 1777570010 | 22.78° C | 78% | 1010.7 hPa | 0 mm | - | 434 W/m² | - |
| 1777569707 | 22.22° C | 78% | 1010.6 hPa | 0 mm | - | 376 W/m² | - |
| 1777569402 | 22.78° C | 76% | 1010.5 hPa | 0 mm | - | 431 W/m² | - |
| 1777569099 | 22.22° C | 73% | 1010.6 hPa | 0 mm | - | 259 W/m² | - |
| 1777568796 | 22.22° C | 76% | 1010.6 hPa | 0 mm | - | 489 W/m² | - |
| 1777568494 | 21.67° C | 78% | 1010.7 hPa | 0 mm | - | 615 W/m² | - |
| 1777568189 | 22.22° C | 77% | 1010.8 hPa | 0 mm | - | 464 W/m² | - |
| 1777567887 | 21.67° C | 80% | 1010.8 hPa | 0 mm | - | 646 W/m² | - |
| 1777567583 | 21.67° C | 81% | 1010.8 hPa | 0 mm | - | 437 W/m² | - |
| 1777567280 | 21.67° C | 80% | 1011.1 hPa | 0 mm | - | 217 W/m² | - |
| 1777566979 | 21.11° C | 81% | 1011.1 hPa | 0 mm | - | 267 W/m² | - |
| 1777566676 | 21.11° C | 80% | 1010.9 hPa | 0 mm | - | 248 W/m² | - |
| 1777566374 | 21.11° C | 78% | 1010.9 hPa | 0 mm | - | 235 W/m² | - |
| 1777566071 | 21.67° C | 77% | 1011 hPa | 0 mm | - | 391 W/m² | - |
| 1777565766 | 22.22° C | 76% | 1011 hPa | 0 mm | - | 482 W/m² | - |
| 1777565463 | 21.67° C | 74% | 1010.8 hPa | 0 mm | - | 476 W/m² | - |
* Rain latest hour (hover to see other rain measurements)
** Current wind speed in m/s (hover to see current wind gust speed)